Regional Weather Roundup
Issued by NWS Jackson, KY

Home | Current Version | Previous Version | Graphics & Text | Print | Product List | Glossary On
Versions: 1 2 3 4 5 6 7 8 9 10 11 12 13 14 15 16 17 18 19 20 21 22 23 24 25 26 27 28 29 30 31 32 33 34 35 36 37 38 39 40 41 42 43 44 45 46 47 48 49 50
000
ASUS43 KJKL 220110
RWRJKL

EAST KENTUCKY HOURLY WEATHER ROUNDUP
NATIONAL WEATHER SERVICE JACKSON KY
900 PM EDT MON AUG 21 2017

NOTE: "FAIR" INDICATES FEW OR NO CLOUDS BELOW 12,000 FEET WITH
NO SIGNIFICANT WEATHER AND/OR OBSTRUCTIONS TO VISIBILITY.

* THESE REPORTS ARE NOT UNDER NWS QUALITY CONTROL AND MAY NOT
  REPORT WEATHER SUCH AS PRECIPITATION AND FOG.

KYZ079-080-083-085-087-088-110-112-115-119-120-220200
...EASTERN KENTUCKY...

CITY           SKY/WX    TMP DP  RH WIND       PRES   REMARKS
JACKSON        CLEAR     79  68  69 CALM      30.17S
LONDON         CLEAR     79  71  76 CALM      30.16S
SOMERSET*      PTCLDY    77  70  78 S3        30.15F
MONTICELLO*    MOCLDY    74  73  97 CALM      30.16S
WILLIAMSBURG*  CLEAR     75  75 100 CALM      30.16S
MIDDLESBORO*   CLEAR     75  69  80 W3        30.18R
HARLAN APT*    CLEAR     73  68  83 CALM      30.19S
PIKE CO APT*     N/A     81  69  67 CALM      30.18S
BIG SANDY APT* CLEAR     78  72  83 CALM      30.17S
MOREHEAD APT*  PTCLDY    79  70  73 S3        30.15S
$$

KYZ035-036-041-042-044-050-067-078-099-220200
...CENTRAL KENTUCKY...

CITY           SKY/WX    TMP DP  RH WIND       PRES   REMARKS
MT STERLING*   CLOUDY    79  70  73 SW3       30.15F
FLEMING/MASON* CLOUDY    79  71  76 S5        30.13S
DANVILLE*      MOCLDY    77  70  78 CALM      30.15S
LEXINGTON      PTCLDY    80  68  66 S6        30.13S
FRANKFORT      CLOUDY    81  68  64 S6        30.10S
LOUISVILLE     CLOUDY    87  70  56 S7        30.07S HX  92
LEBANON*         N/A     81  68  65 CALM      30.12F
GLASGOW*       CLEAR     76  69  79 CALM      30.12F
BOWLING GREEN  CLOUDY    82  71  69 SE5       30.10S
$$

KYZ091>093-OHZ055-061-077-WVZ005-015-034-035-042-220200
...SOUTHERN OHIO/WEST VIRGINIA...

CITY           SKY/WX    TMP DP  RH WIND       PRES   REMARKS
COVINGTON      CLOUDY    78  73  84 S5        30.09F
COLUMBUS       MOCLDY    83  70  64 S7        30.08S
DAYTON         CLOUDY    79  68  69 SW7       30.09S
WILMINGTON     MOCLDY    76  71  85 S6        30.10S
HUNTINGTON     PTCLDY    81  68  64 CALM      30.12S
CHARLESTON     PTCLDY    77  69  76 CALM      30.14S
PINEVILLE*     CLEAR     72  69  90 MISG      30.25S
BECKLEY        CLEAR     73  63  70 CALM      30.25R
BLUEFIELD      CLEAR     77  63  61 CALM      30.28R
LOGAN CO APT*    N/A     77  70  78 CALM      30.19S
$$

VAZ002-007-008-TNZ017-027-036-066-071-220200
...SOUTHWEST VIRGINIA/EAST TENNESSEE...

CITY           SKY/WX    TMP DP  RH WIND       PRES   REMARKS
WISE*          CLEAR     73  63  68 CALM      30.28S
JONESVILLE*      N/A     73  70  88 CALM      30.20R
ABINGDON*      CLEAR     77  70  79 CALM      30.23S
BRISTOL        PTCLDY    76  70  82 N5        30.19R
MORRISTOWN*    CLEAR     81  70  69 CALM      30.16R
SEVIERVILLE*   CLEAR     81  66  61 CALM      30.14S
KNOXVILLE      PTCLDY    83  67  58 CALM      30.14R
LAFOLLETTE*    CLEAR     75  72  88 CALM      30.19S
OAK RIDGE      CLEAR     80  71  74 CALM      30.16R
CROSSVILLE     CLEAR     73  68  84 CALM      30.20S
NASHVILLE      PTCLDY    85  69  58 S6        30.11R
$$

...KEY TO REMARKS...
VSB - VISIBILITY IN MILES
WCI - WIND CHILL INDEX
HX  - HEAT INDEX

$$



USA.gov is the U.S. government's official web portal to all federal, state and local government web resources and services.